Location: Gleizolles
(44.4833°N, 6.7667°E)
Time: 22:03:26
(UTC+00:00)

ISS - Visible Passes

Search period start: 26 February 2021 00:00
Search period end: 08 March 2021 00:00
Orbit: 417 x 422 km, 51.6° (Epoch: 27 February)

Date Brightness Start Highest point End Pass type
(mag) Time Alt. Az. Time Alt. Az. Time Alt. Az.
26 Feb -3.4 04:37:44 46° NW 04:37:58 47° NNW 04:41:16 10° NE visible
27 Feb -1.7 03:52:11 26° NE 03:52:11 26° NE 03:53:50 10° NE visible
27 Feb -2.2 05:25:09 12° WNW 05:27:43 25° N 05:30:35 10° NE visible
28 Feb -2.5 04:39:33 27° NNW 04:40:06 29° NNW 04:43:06 10° NE visible
01 Mar -1.7 03:53:54 24° NNE 03:53:54 24° NNE 03:55:38 10° NE visible
01 Mar -2.0 05:27:10 10° NW 05:29:57 23° N 05:32:43 10° ENE visible
02 Mar -2.0 04:41:10 20° NNW 04:42:16 23° N 04:45:04 10° NE visible
03 Mar -1.7 03:55:28 22° NNE 03:55:28 22° NNE 03:57:29 10° NE visible
03 Mar -2.1 05:29:10 10° NW 05:32:07 27° NNE 05:35:03 10° ENE visible
04 Mar -0.3 03:09:46 11° NE 03:09:46 11° NE 03:09:57 10° NE visible
04 Mar -1.9 04:42:43 17° NW 04:44:27 24° N 04:47:17 10° ENE visible
05 Mar -1.8 03:57:01 23° N 03:57:01 23° N 03:59:32 10° ENE visible
05 Mar -2.7 05:30:55 10° NW 05:34:08 41° NNE 05:37:21 10° E visible
06 Mar -0.5 03:11:19 13° NE 03:11:19 13° NE 03:11:50 10° NE visible
06 Mar -2.3 04:44:17 16° NW 04:46:30 32° NNE 04:49:35 10° E visible
07 Mar -2.1 03:58:37 27° N 03:58:50 27° NNE 04:01:46 10° ENE visible
